W6ZZY Weather Reports


time (UTC)temp
C
wind
direction
speed
KPH
gust
KPH
rain 1hr
cm
rain 24hr
cm
rain mn
cm
humidity
%
barometer
mb
20260503195023 17 216 4.8 14.5 0.00 0.00 0.00 71 1015.9
20260503194017 17 188 3.2 11.3 0.00 0.00 0.00 72 1015.8
20260503193035 17 141 4.8 9.7 0.00 0.00 0.00 70 1016.0
20260503192027 17 141 3.2 9.7 0.00 0.00 0.00 73 1015.9
20260503191021 16 204 3.2 9.7 0.00 0.00 0.00 73 1016.0
20260503190015 16 151 3.2 4.8 0.00 0.00 0.00 70 1016.1
20260503185031 16 142 6.4 16.1 0.00 0.00 0.00 74 1016.0
20260503184045 15 174 3.2 6.4 0.00 0.00 0.00 79 1016.0
20260503183020 14 192 8.0 12.9 0.00 0.00 0.00 82 1015.9
20260503182035 14 158 3.2 6.4 0.00 0.00 0.00 83 1016.0
20260503181029 14 171 3.2 9.7 0.00 0.00 0.00 84 1015.9
20260503180044 13 157 3.2 6.4 0.00 0.00 0.00 84 1015.9
20260503175018 14 212 3.2 6.4 0.00 0.00 0.00 84 1015.7
20260503174113 13 195 3.2 9.7 0.00 0.00 0.00 85 1015.7
20260503173028 13 178 3.2 9.7 0.00 0.00 0.00 85 1015.6
20260503172023 13 184 3.2 11.3 0.00 0.00 0.00 84 1015.7
20260503171018 13 171 4.8 9.7 0.00 0.00 0.00 85 1015.7
20260503131030 11 143 3.2 11.3 0.00 0.00 0.00 92 1013.6
20260503081034 11 183 3.2 9.7 0.00 0.00 0.00 91 1014.3
20260503072027 11 172 1.6 4.8 0.00 0.00 0.00 91 1014.4
20260503071021 11 163 1.6 3.2 0.00 0.00 0.00 91 1014.4
20260503055040 11 178 0.0 3.2 0.00 0.00 0.00 91 1014.9
20260503054035 11 183 1.6 3.2 0.00 0.00 0.00 91 1014.9
20260503053050 11 172 1.6 4.8 0.00 0.00 0.00 91 1014.7
20260503052024 11 159 1.6 4.8 0.00 0.00 0.00 91 1014.8
20260503051018 11 196 1.6 6.4 0.00 0.00 0.00 91 1014.9
20260503050033 11 176 1.6 6.4 0.00 0.00 0.00 91 1014.8
20260503045028 11 162 1.6 6.4 0.00 0.00 0.00 91 1014.8
20260503044021 11 134 3.2 6.4 0.00 0.00 0.00 91 1014.7
20260503043016 11 180 1.6 6.4 0.00 0.00 0.00 91 1014.7
20260503042029 11 162 0.0 3.2 0.00 0.00 0.00 90 1014.5
20260503041044 11 162 3.2 4.8 0.00 0.00 0.00 90 1014.5
20260503040018 11 166 1.6 6.4 0.00 0.00 0.00 90 1014.6
20260503035034 11 179 1.6 4.8 0.00 0.00 0.00 90 1014.5
20260503034028 11 136 1.6 3.2 0.00 0.00 0.00 90 1014.3
20260503033044 11 188 1.6 3.2 0.00 0.00 0.00 90 1014.4
20260503032018 11 187 1.6 4.8 0.00 0.00 0.00 90 1014.2
20260503031033 12 240 1.6 6.4 0.00 0.00 0.00 89 1014.1
20260503030208 12 152 1.6 4.8 0.00 0.00 0.00 89 1013.8
20260503025021 12 160 1.6 4.8 0.00 0.00 0.00 89 1013.9
20260503024036 12 147 1.6 4.8 0.00 0.00 0.00 88 1014.0
20260503023031 12 215 3.2 4.8 0.00 0.00 0.00 88 1013.8
20260503022025 12 156 3.2 6.4 0.00 0.00 0.00 87 1013.9
20260503021021 12 178 3.2 6.4 0.00 0.00 0.00 87 1014.0
20260503020036 12 184 3.2 16.1 0.00 0.00 0.00 86 1014.0
20260503015030 13 201 3.2 9.7 0.00 0.00 0.00 85 1014.1
20260503014025 13 133 1.6 6.4 0.00 0.00 0.00 84 1014.1
20260503013020 13 167 1.6 9.7 0.00 0.00 0.00 83 1014.1
20260503012016 13 271 4.8 6.4 0.00 0.00 0.00 82 1014.3
20260503011031 13 114 3.2 4.8 0.00 0.00 0.00 82 1014.2
20260503010026 13 181 3.2 6.4 0.00 0.00 0.00 82 1014.3
20260503005020 13 227 4.8 6.4 0.00 0.00 0.00 81 1014.3
20260503004015 14 0.0 0.0 0.00 0.00 0.00 81 1014.5
20260503003031 15 192 6.4 9.7 0.00 0.00 0.00 79 1014.5
20260503002026 15 255 4.8 9.7 0.00 0.00 0.00 79 1014.4
20260503001020 15 187 4.8 9.7 0.00 0.00 0.00 78 1014.5
20260503000016 15 144 6.4 12.9 0.00 0.00 0.00 77 1014.5
20260502235051 15 173 3.2 11.3 0.00 0.00 0.00 81 1014.5
20260502234025 14 171 4.8 17.7 0.00 0.00 0.00 81 1014.8
20260502233019 14 191 6.4 14.5 0.00 0.00 0.00 80 1014.8
20260502232034 15 178 6.4 14.5 0.00 0.00 0.00 78 1014.9
20260502231028 15 156 6.4 12.9 0.00 0.00 0.00 80 1014.9
20260502230043 15 149 6.4 12.9 0.00 0.00 0.00 79 1015.2
20260502225017 15 202 6.4 16.1 0.00 0.00 0.00 78 1015.3
20260502224112 15 181 8.0 16.1 0.00 0.00 0.00 77 1015.4
20260502223027 15 147 9.7 22.5 0.00 0.00 0.00 77 1015.5
20260502222021 15 215 6.4 12.9 0.00 0.00 0.00 76 1015.6
20260502221016 15 220 8.0 16.1 0.00 0.00 0.00 78 1015.7
20260502220030 15 184 6.4 12.9 0.00 0.00 0.00 78 1015.9
20260502215026 15 192 4.8 9.7 0.00 0.00 0.00 80 1015.8
20260502214021 15 219 6.4 17.7 0.00 0.00 0.00 77 1015.9
20260502213016 15 159 6.4 12.9 0.00 0.00 0.00 76 1015.8
20260502212031 15 176 6.4 11.3 0.00 0.00 0.00 78 1015.9
20260502211046 15 173 8.0 12.9 0.00 0.00 0.00 81 1016.0
20260502210021 15 145 4.8 16.1 0.00 0.00 0.00 80 1016.2
20260502205036 14 128 4.8 12.9 0.00 0.00 0.00 82 1016.3
20260502204051 14 166 6.4 12.9 0.00 0.00 0.00 81 1016.3
20260502203025 14 152 4.8 11.3 0.00 0.00 0.00 83 1016.4
20260502202040 14 164 4.8 11.3 0.00 0.00 0.00 84 1016.4
20260502201035 13 159 4.8 12.9 0.00 0.00 0.00 86 1016.6
20260502200030 13 176 6.4 14.5 0.00 0.00 0.00 86 1016.5